Philadelphia, PA

5:21 PM EDT on September 22, 2019 (GMT -0400)
Philadelphia International

Weather History for KPHL - August, 2019

Change the Weather History Date:

Monday, August 19, 2019

  Actual Average Record
Temperature  
Mean Temperature 84 °F 76 °F  
Max Temperature 93 °F 85 °F 94 °F (2002)
Min Temperature 75 °F 68 °F 51 °F (1963)
Degree Days  
Heating Degree Days 0 0  
Month to date heating degree days 0  
Since 1 June heating degree days 11  
Since 1 July heating degree days 0  
Cooling Degree Days 19 11  
Month to date cooling degree days 236  
Year to date cooling degree days 993  
Since 1 June cooling degree days 902  
Growing Degree Days 34 (Base 50)    
Moisture  
Dew Point 73 °F    
Average Humidity 78    
Maximum Humidity 94    
Minimum Humidity 52    
Precipitation  
Precipitation 0.00 in 0.12 in 3.73 in (1939)
Month to date precipitation 2.22  
Year to date precipitation 26.74  
Snow  
Snow - 0.00 in 0.00 in ()
Month to date snowfall 0.0  
Since 1 June snowfall 0.0  
Since 1 July snowfall 0.0  
Snow Depth -    
Sea Level Pressure  
Sea Level Pressure 29.98 in    
Wind  
Wind Speed 5 mph ()    
Max Wind Speed 12 mph    
Max Gust Speed -    
Visibility 9.8 miles    
Events Rain , Thunderstorm    
T = Trace of Precipitation, MM = Missing Value Source: Averaged Metar Reports

Daily Weather History Graph

Daily Weather History Graph

Search for Another Location

Airport or City:

Astronomy

Aug. 19, 2019 Rise Set
Actual Time 6:16 AM EDT 7:52 PM EDT
Civil Twilight 5:47 AM EDT 8:20 PM EDT
Nautical Twilight 5:13 AM EDT 8:55 PM EDT
Astronomical Twilight 4:36 AM EDT 9:31 PM EDT
Moon 10:12 PM EDT (8/19) 9:55 AM EDT (8/19)
Length of Visible Light 14h 32m
Length of Day
13h 35m
Waning Gibbous, 85% of the Moon is Illuminated
Aug 19
Waning Gibbous
Aug 23
Last Quarter
Aug 30
New
Sep 5
First Quarter
Sep 14
Full

Hourly Weather History & Observations

Time (EDT) Temp. Heat Index Dew Point Humidity Pressure Visibility Wind Dir Wind Speed Gust Speed Precip Events Conditions
12:54 AM 75.9 °F - 69.1 °F 79% 29.96 in 10.0 mi SE 4.6 mph - N/A   Mostly Cloudy
1:54 AM 77.0 °F - 71.1 °F 82% 29.95 in 10.0 mi SSE 4.6 mph - N/A   Mostly Cloudy
2:50 AM 75.2 °F - 71.6 °F 89% 29.96 in 10.0 mi Calm Calm - N/A   Mostly Cloudy
2:54 AM 75.9 °F - 73.0 °F 91% 29.96 in 10.0 mi Calm Calm - N/A   Mostly Cloudy
3:20 AM 77.0 °F - 73.0 °F 88% 29.97 in 10.0 mi SW 6.9 mph - N/A   Mostly Cloudy
3:54 AM 77.0 °F - 73.0 °F 88% 29.96 in 10.0 mi South 5.8 mph - N/A   Overcast
4:06 AM 77.0 °F - 73.0 °F 88% 29.97 in 10.0 mi Calm Calm - N/A   Mostly Cloudy
4:54 AM 77.0 °F - 73.9 °F 90% 29.98 in 10.0 mi SSW 5.8 mph - N/A   Mostly Cloudy
5:54 AM 77.0 °F - 73.9 °F 90% 29.99 in 10.0 mi South 4.6 mph - N/A   Mostly Cloudy
6:54 AM 75.9 °F - 73.9 °F 94% 30.00 in 10.0 mi South 4.6 mph - N/A   Mostly Cloudy
7:54 AM 77.0 °F - 73.9 °F 90% 30.00 in 10.0 mi South 5.8 mph - N/A   Mostly Cloudy
8:06 AM 77.0 °F - 73.9 °F 90% 30.00 in 10.0 mi SSW 8.1 mph - N/A   Mostly Cloudy
8:54 AM 80.1 °F 84.5 °F 73.9 °F 81% 30.00 in 9.0 mi SSW 5.8 mph - N/A   Mostly Cloudy
9:15 AM 79.0 °F - 73.9 °F 84% 30.00 in 10.0 mi WSW 9.2 mph - N/A   Overcast
9:49 AM 80.6 °F 86.2 °F 75.2 °F 84% 30.00 in 10.0 mi SW 4.6 mph - N/A   Mostly Cloudy
9:54 AM 81.0 °F 86.7 °F 75.0 °F 82% 30.00 in 10.0 mi WSW 5.8 mph - N/A   Mostly Cloudy
10:48 AM 84.2 °F 90.9 °F 73.4 °F 70% 30.00 in 10.0 mi SW 10.4 mph - N/A   Mostly Cloudy
10:54 AM 84.9 °F 92.1 °F 73.9 °F 69% 30.00 in 10.0 mi SW 11.5 mph - N/A   Mostly Cloudy
11:07 AM 84.9 °F 92.1 °F 73.9 °F 69% 30.00 in 10.0 mi WSW 9.2 mph - N/A   Scattered Clouds
11:54 AM 86.0 °F 93.8 °F 73.9 °F 67% 30.00 in 10.0 mi SSW 5.8 mph - N/A   Mostly Cloudy
12:54 PM 88.0 °F 95.6 °F 73.0 °F 61% 29.99 in 10.0 mi SW 5.8 mph - N/A   Mostly Cloudy
1:54 PM 90.0 °F 97.9 °F 73.0 °F 57% 29.97 in 10.0 mi West 6.9 mph - N/A   Mostly Cloudy
2:54 PM 91.9 °F 100.7 °F 73.0 °F 54% 29.96 in 10.0 mi WSW 10.4 mph - N/A   Mostly Cloudy
3:06 PM 93.0 °F 101.9 °F 73.0 °F 52% 29.94 in 10.0 mi SW 10.4 mph - N/A Thunderstorm Thunderstorm
3:54 PM 91.0 °F 101.6 °F 75.0 °F 59% 29.94 in 7.0 mi WSW 10.4 mph - 0.00 in Rain , Thunderstorm Light Thunderstorms and Rain